Wind_Speed
24 27 30 31 33 35 37 39 39 40 41 42 43 43 45 47 48 47 47 48 47 44 41 35 31 29 27 27 25 26 29 28 25 24 26 25 21 20 19 18 19 19 20 19
20 23 26 29 32 34 36 37 37 38 40 40 40 40 43 44 46 47 46 46 45 43 41 38 33 32 32 30 28 27 29 32 29 26 25 25 22 21 22 22 22 23 23 22
23 24 27 29 31 34 35 36 37 39 38 38 39 39 40 42 44 45 45 44 44 42 39 36 33 31 32 37 32 29 31 36 36 32 27 27 26 26 26 24 25 26 25 25
22 25 26 28 31 34 34 35 36 36 36 35 36 37 35 35 37 40 42 42 41 39 39 39 37 34 30 36 36 36 36 37 43 41 34 32 29 27 26 27 26 27 28 28
26 30 32 34 35 37 38 38 38 39 39 39 37 39 38 37 38 36 35 36 37 37 37 36 37 36 34 37 37 40 44 44 46 40 35 33 31 25 24 28 28 29 29 28
33 37 39 41 42 42 43 44 45 48 46 45 43 43 42 41 39 36 32 30 32 33 34 34 36 37 37 41 44 44 48 46 47 38 32 32 29 24 25 29 29 28 29 29
35 40 43 45 45 45 47 49 52 54 53 52 49 48 44 40 36 32 29 27 30 34 35 35 36 36 37 39 44 49 49 48 48 41 35 33 28 25 26 29 30 30 31 31
42 43 46 50 52 52 51 51 49 51 51 51 49 45 41 38 34 31 26 24 25 33 37 37 39 41 41 41 41 48 47 45 52 43 33 30 25 24 27 32 31 29 30 28
51 51 53 53 54 53 50 46 43 39 36 36 34 33 32 32 32 32 27 24 22 26 33 36 37 41 39 40 43 48 49 47 49 44 35 26 22 25 26 28 28 28 27 28
49 44 39 34 31 29 28 24 16 11 12 12 10 11 12 16 20 23 22 19 18 20 23 28 35 35 39 36 34 33 34 27 17 22 22 21 25 24 22 25 25 28 29 31
31 28 25 23 19 14 15 16 7 2 3 3 7 8 6 9 16 15 12 15 11 10 13 18 28 33 36 43 26 25 18 8 11 12 15 22 25 21 19 21 25 29 30 31
24 21 21 22 22 18 17 13 8 6 6 6 7 12 5 2 7 7 7 12 7 5 0 4 4 12 6 11 5 9 13 12 10 10 17 21 23 22 21 21 19 20 23 24
26 22 21 21 22 24 22 18 15 16 14 12 11 10 7 1 5 3 7 13 9 8 5 10 12 13 15 14 11 9 5 4 9 13 15 18 16 12 13 14 15 21 21 21
27 22 21 21 21 21 24 22 19 17 15 12 13 10 12 10 9 9 10 13 14 10 15 16 16 13 12 7 3 1 3 9 14 19 20 15 9 9 11 13 16 22 23 22
25 24 21 21 23 25 21 19 20 18 18 18 15 12 12 10 7 6 5 8 9 11 16 18 14 10 5 1 3 6 7 10 13 14 16 14 12 12 14 17 20 21 19 17
24 24 24 24 24 25 22 20 19 18 19 20 18 19 17 16 11 6 5 4 8 9 13 14 7 2 3 6 5 5 7 9 13 14 14 15 16 17 19 21 20 17 15 13
24 26 29 28 27 27 22 19 20 20 21 20 19 15 13 15 15 17 11 9 7 6 7 8 9 6 4 4 3 4 5 7 9 10 12 13 15 19 21 17 13 13 14 14
19 20 21 23 24 23 24 21 19 20 21 23 22 22 21 17 14 14 18 15 10 8 7 5 3 3 3 3 3 4 8 10 11 12 13 16 19 20 17 15 15 15 15 16
22 21 18 18 20 21 22 19 15 11 14 18 18 19 21 24 22 18 19 20 18 15 11 9 7 8 7 8 8 10 13 16 17 18 19 19 20 19 17 16 17 17 15 14
19 21 20 19 19 19 20 19 15 13 13 15 16 18 19 25 22 20 20 19 19 18 14 12 11 11 11 12 13 14 14 14 15 16 16 17 19 20 19 19 19 18 15 13
17 18 17 18 17 17 17 17 17 16 14 14 15 15 16 18 18 17 18 17 17 15 13 13 14 14 15 16 17 17 18 18 18 18 18 19 21 21 21 21 20 19 17 15
19 17 16 16 16 16 16 14 14 14 12 9 9 10 11 12 13 15 16 16 16 15 14 16 18 18 18 18 18 18 17 17 17 18 19 20 21 21 21 20 19 16 14 14
22 20 18 19 19 17 16 11 10 11 10 9 8 8 8 9 11 12 14 15 15 14 14 15 15 15 15 16 17 17 17 18 18 19 19 20 21 21 20 19 17 15 13 13
25 22 21 23 25 20 14 10 8 7 6 7 7 7 6 7 8 10 13 14 15 16 16 15 14 14 14 15 17 18 20 21 20 20 20 20 21 21 19 16 15 14 13 13
29 28 25 25 29 29 19 10 6 5 4 5 5 5 5 5 6 9 11 12 13 14 16 17 16 15 15 16 16 17 17 18 19 19 19 18 18 18 16 15 15 15 15 13
25 28 29 28 29 31 31 20 9 3 2 1 2 3 4 4 4 6 8 10 11 12 16 20 19 16 16 16 16 15 15 15 16 16 16 17 18 19 18 16 15 14 16 15
Wind_Direction
262 262 262 263 264 265 266 267 267 268 268 267 267 267 266 266 268 268 268 268 269 269 269 267 264 257 246 247 255 264 267 266 262 262 264 263 256 251 249 258 272 271 266 265
261 263 266 264 264 266 267 267 269 270 269 269 269 269 270 270 269 267 264 264 265 267 267 264 260 259 246 245 241 247 260 263 258 253 254 256 251 249 253 261 266 267 266 262
271 270 265 265 266 267 268 269 269 269 269 271 273 273 275 276 275 273 269 264 263 261 258 257 254 252 240 243 237 242 254 256 250 242 235 239 244 250 250 248 255 259 262 265
274 273 273 272 271 269 269 268 268 268 269 271 274 273 274 278 279 277 271 266 262 260 256 253 253 254 241 228 227 245 249 253 257 244 223 226 235 236 241 249 251 250 257 265
282 281 277 274 273 271 270 268 269 268 269 271 276 278 277 279 278 277 274 266 258 255 254 251 246 247 237 230 236 247 251 252 249 236 219 221 226 230 241 250 253 257 260 269
288 286 284 283 282 281 278 279 279 278 278 279 282 285 285 285 282 277 271 265 254 245 246 244 239 241 243 242 240 242 249 251 247 240 235 228 223 226 237 251 259 261 264 269
296 296 294 291 288 286 286 287 287 285 283 284 284 285 285 284 277 271 265 258 249 239 237 239 237 237 246 246 248 247 245 247 250 249 227 227 224 231 242 250 252 258 266 272
301 300 295 292 289 288 287 287 287 285 283 282 281 281 280 278 271 265 261 257 251 238 238 239 239 240 248 250 251 242 240 249 249 240 223 235 248 248 245 242 247 261 271 279
306 304 300 296 293 291 292 293 289 285 283 279 275 275 271 263 255 256 261 259 256 245 242 246 248 246 247 247 241 244 243 242 244 237 236 251 253 247 246 252 259 268 276 283
316 320 319 315 310 309 303 301 301 299 287 279 258 242 238 218 229 245 256 255 253 263 264 259 249 250 250 248 246 256 249 250 222 211 238 241 242 251 261 271 277 281 288 287
346 359 8 9 3 350 342 341 350 101 142 66 70 96 149 212 244 256 252 238 244 288 309 299 265 258 261 252 279 272 255 223 178 192 230 234 243 259 273 281 283 282 280 280
15 32 24 21 20 16 13 11 35 94 109 101 103 61 62 240 273 268 226 219 221 245 82 47 284 245 190 221 226 157 151 156 179 223 240 252 259 269 284 289 291 303 302 292
23 24 25 36 40 50 44 43 68 94 90 85 80 57 65 103 149 122 173 209 209 201 130 79 75 88 88 99 94 83 80 272 281 288 290 291 285 286 298 296 314 325 315 296
29 32 34 42 35 46 59 56 59 72 78 72 82 76 55 63 96 95 111 165 170 169 128 114 105 106 107 98 81 324 302 306 321 321 314 314 355 349 331 328 334 322 306 297
37 42 39 39 48 64 72 64 63 70 78 73 70 69 61 54 63 80 77 89 139 134 128 137 139 141 140 263 297 296 309 326 332 329 336 351 352 342 336 337 327 313 298 297
35 39 41 44 49 57 71 78 82 81 77 65 57 71 64 56 74 89 112 114 130 143 149 158 154 139 8 333 328 337 330 339 335 339 348 350 346 341 335 329 320 310 302 309
43 47 50 51 52 56 68 79 85 86 79 74 67 60 52 49 62 61 86 137 138 106 116 176 204 238 290 333 30 68 36 4 352 350 351 342 340 335 330 332 327 316 314 314
49 49 44 47 49 59 65 79 87 86 78 76 76 78 76 73 71 62 72 95 106 92 82 85 92 57 2 348 14 353 341 347 343 344 349 345 338 331 333 340 337 324 310 301
46 38 38 42 45 48 56 62 77 77 70 69 76 82 86 87 81 78 80 79 79 72 66 68 67 61 48 33 19 1 353 354 354 351 344 337 328 324 320 321 325 319 303 287
30 30 40 46 43 41 44 49 53 53 60 64 75 86 87 87 85 83 81 78 75 70 65 63 58 46 33 21 14 5 2 359 350 343 338 334 330 328 324 318 316 312 301 287
17 18 25 32 33 34 34 39 44 54 63 71 79 78 73 72 71 67 66 64 63 61 56 47 46 38 28 20 12 3 360 356 352 345 340 336 332 329 324 319 316 311 302 293
20 16 11 11 14 12 18 28 38 53 61 69 73 76 72 68 66 62 58 48 39 32 31 34 36 29 20 15 9 6 3 1 356 352 348 342 337 332 328 326 324 317 304 290
25 25 11 358 354 350 358 8 22 33 44 53 58 62 59 62 63 58 52 45 41 44 42 37 30 22 16 11 5 2 1 1 0 358 352 347 343 341 339 337 333 324 312 298
28 29 21 12 5 353 342 347 9 35 45 49 57 62 60 56 52 47 44 45 48 46 39 28 19 9 2 2 2 359 356 355 358 358 354 354 352 349 350 354 355 349 334 317
24 24 23 20 21 20 14 359 3 34 62 68 60 41 29 36 37 38 41 44 50 47 35 23 14 10 7 5 4 4 4 2 2 0 358 359 359 0 5 9 11 5 358 352
17 18 19 20 22 25 26 21 15 3 359 108 87 18 356 351 8 29 33 34 39 36 24 18 18 20 16 14 13 13 9 3 2 6 14 16 13 16 19 18 16 14 14 16
Height
5857 5857 5855 5854 5853 5851 5850 5848 5847 5846 5845 5847 5846 5848 5845 5842 5845 5847 5848 5848 5850 5852 5853 5855 5857 5858 5859 5859 5860 5861 5861 5861 5861 5862 5861 5861 5862 5863 5862 5861 5860 5861 5860 5860
5854 5852 5850 5848 5846 5843 5841 5839 5838 5837 5836 5836 5836 5837 5835 5834 5834 5835 5837 5838 5840 5843 5845 5848 5850 5850 5851 5852 5853 5855 5855 5855 5855 5855 5855 5856 5855 5856 5855 5855 5854 5854 5855 5855
5850 5848 5844 5841 5839 5836 5833 5832 5830 5828 5827 5827 5827 5828 5827 5825 5824 5824 5825 5828 5829 5832 5834 5838 5840 5840 5840 5844 5846 5847 5846 5845 5844 5844 5846 5847 5847 5848 5848 5848 5848 5848 5849 5850
5845 5841 5840 5836 5832 5828 5827 5824 5822 5819 5819 5818 5818 5818 5819 5817 5815 5814 5815 5817 5819 5822 5825 5829 5831 5834 5834 5835 5836 5838 5839 5837 5836 5835 5833 5834 5836 5838 5841 5841 5844 5845 5843 5843
5838 5835 5833 5829 5825 5821 5818 5815 5812 5810 5808 5809 5808 5806 5809 5808 5807 5807 5806 5807 5810 5814 5817 5820 5822 5825 5827 5828 5828 5830 5830 5829 5826 5827 5827 5827 5828 5832 5834 5835 5839 5841 5839 5839
5832 5826 5822 5818 5814 5810 5805 5802 5799 5797 5796 5797 5797 5795 5797 5799 5798 5799 5799 5800 5802 5805 5808 5811 5813 5815 5818 5819 5818 5816 5819 5820 5822 5821 5824 5824 5823 5825 5828 5830 5833 5835 5834 5832
5825 5819 5811 5806 5803 5799 5794 5791 5786 5783 5783 5784 5785 5784 5786 5789 5790 5790 5790 5792 5794 5796 5799 5801 5803 5806 5807 5807 5806 5806 5807 5810 5814 5817 5817 5818 5817 5819 5823 5826 5826 5826 5826 5826
5815 5811 5802 5793 5787 5784 5781 5778 5775 5770 5769 5769 5770 5772 5776 5780 5781 5782 5782 5785 5787 5788 5791 5793 5794 5796 5796 5794 5797 5798 5801 5804 5807 5812 5811 5813 5810 5810 5814 5817 5819 5819 5821 5820
5799 5795 5786 5777 5768 5764 5762 5760 5755 5753 5752 5754 5757 5760 5762 5767 5771 5773 5776 5779 5781 5781 5783 5786 5787 5786 5786 5786 5786 5791 5795 5798 5801 5808 5810 5808 5804 5806 5809 5813 5814 5815 5815 5814
5786 5780 5771 5762 5754 5749 5747 5744 5742 5741 5742 5744 5747 5749 5753 5757 5761 5765 5770 5774 5776 5776 5776 5777 5777 5779 5779 5780 5783 5782 5785 5786 5789 5794 5799 5799 5800 5804 5805 5808 5809 5808 5807 5808
5781 5776 5768 5760 5753 5749 5745 5741 5738 5740 5742 5745 5746 5751 5753 5755 5759 5763 5767 5770 5773 5775 5774 5771 5771 5776 5772 5772 5774 5775 5776 5780 5786 5789 5791 5792 5796 5798 5797 5797 5798 5799 5800 5802
5783 5778 5771 5765 5759 5752 5748 5743 5741 5741 5744 5747 5748 5754 5753 5756 5758 5762 5764 5767 5771 5773 5772 5770 5767 5771 5770 5770 5774 5774 5775 5781 5785 5786 5787 5791 5793 5792 5792 5792 5795 5794 5793 5792
5788 5781 5775 5769 5765 5759 5753 5748 5747 5747 5748 5750 5752 5757 5756 5757 5759 5761 5763 5765 5768 5771 5770 5770 5771 5773 5773 5773 5776 5777 5777 5781 5783 5783 5785 5788 5789 5787 5787 5789 5789 5787 5785 5783
5790 5785 5780 5775 5769 5762 5758 5755 5754 5753 5754 5757 5758 5759 5758 5758 5760 5762 5763 5765 5768 5770 5771 5771 5772 5774 5774 5777 5777 5776 5778 5781 5782 5781 5783 5785 5784 5784 5784 5783 5781 5782 5780 5776
5794 5788 5783 5778 5772 5768 5765 5764 5762 5760 5761 5762 5761 5761 5761 5760 5761 5762 5763 5766 5769 5771 5772 5773 5776 5777 5778 5780 5780 5779 5778 5778 5779 5779 5780 5780 5781 5782 5780 5777 5775 5775 5774 5769
5800 5795 5790 5784 5779 5775 5772 5770 5769 5768 5767 5767 5766 5766 5765 5764 5763 5764 5764 5766 5769 5772 5774 5776 5778 5778 5780 5779 5779 5778 5779 5779 5779 5779 5778 5777 5777 5776 5776 5775 5774 5770 5768 5763
5806 5801 5796 5791 5786 5782 5779 5778 5776 5776 5774 5774 5771 5769 5766 5767 5769 5770 5769 5768 5772 5776 5777 5778 5780 5782 5782 5781 5780 5779 5780 5780 5780 5780 5778 5777 5775 5774 5773 5771 5769 5766 5763 5760
5812 5807 5802 5798 5796 5791 5788 5784 5783 5782 5780 5778 5776 5774 5772 5773 5773 5775 5774 5776 5778 5779 5779 5780 5781 5782 5782 5782 5780 5780 5780 5779 5779 5778 5777 5775 5773 5771 5768 5766 5764 5762 5760 5758
5817 5813 5809 5805 5802 5799 5796 5792 5789 5788 5785 5783 5781 5779 5778 5777 5778 5779 5779 5779 5780 5781 5783 5783 5784 5784 5784 5782 5780 5779 5777 5775 5773 5773 5773 5773 5771 5769 5767 5763 5760 5758 5755 5753
5822 5818 5814 5811 5808 5805 5803 5799 5796 5794 5791 5788 5786 5785 5784 5781 5784 5785 5783 5783 5783 5783 5785 5786 5786 5784 5784 5782 5779 5777 5776 5775 5775 5774 5773 5770 5768 5764 5760 5757 5754 5752 5750 5748
5826 5821 5818 5815 5813 5810 5808 5804 5801 5799 5798 5795 5793 5791 5790 5789 5789 5788 5786 5786 5786 5786 5787 5786 5784 5783 5782 5780 5779 5777 5774 5771 5769 5769 5766 5764 5762 5759 5756 5753 5749 5747 5745 5743
5828 5825 5822 5818 5816 5816 5811 5808 5806 5804 5801 5800 5799 5798 5796 5795 5794 5793 5792 5790 5788 5786 5785 5782 5780 5782 5781 5780 5777 5774 5772 5770 5768 5766 5764 5761 5758 5755 5752 5748 5744 5742 5740 5739
5832 5829 5824 5821 5819 5815 5811 5810 5808 5806 5804 5803 5803 5802 5801 5799 5798 5798 5796 5794 5793 5791 5789 5787 5786 5785 5783 5781 5778 5775 5772 5769 5767 5765 5762 5760 5756 5753 5749 5745 5741 5738 5735 5733
5835 5831 5827 5822 5818 5813 5810 5809 5808 5807 5806 5805 5804 5804 5803 5803 5802 5801 5799 5797 5795 5793 5792 5791 5789 5787 5785 5781 5777 5774 5771 5768 5766 5763 5761 5759 5756 5752 5747 5743 5740 5736 5733 5729
5838 5834 5830 5826 5821 5815 5810 5807 5807 5806 5806 5806 5806 5806 5806 5805 5804 5804 5803 5802 5800 5798 5796 5793 5791 5788 5785 5782 5778 5775 5772 5769 5766 5764 5761 5758 5755 5751 5747 5744 5740 5736 5732 5728
5841 5837 5833 5829 5824 5819 5814 5809 5807 5806 5806 5806 5807 5807 5807 5807 5806 5806 5804 5803 5801 5800 5797 5794 5791 5788 5786 5783 5780 5777 5773 5770 5768 5765 5762 5759 5756 5752 5748 5745 5741 5737 5733 5729